Miscellaneous Local Product
Issued by NWS Hastings, NE

Home | Current Version | Previous Version | Text Only | Print | Product List | Glossary On
Versions: 1 2 3 4 5 6 7 8 9 10 11 12 13 14 15 16 17 18 19 20 21 22 23 24 25 26 27 28 29 30 31 32 33 34 35 36 37 38 39 40 41 42 43 44 45 46 47 48 49 50
000
AXUS43 KGID 030402
MISGRI

GID CWA HOURLY WEATHER ROUNDUP
NATIONAL WEATHER SERVICE HASTINGS NE
1000 PM CST WED DEC 02 2020

NOTE: "FAIR" INDICATES FEW OR NO CLOUDS BELOW 12,000 FEET WITH NO
SIGNIFICANT WEATHER AND/OR OBSTRUCTIONS TO VISIBILITY.

...SOUTH CENTRAL NEBRASKA...

CITY           SKY/WX    TMP DP  RH WIND       PRES   REMARKS
GRAND ISLAND   CLOUDY    32  25  75 N13       30.40S WCI  22
KEARNEY        CLOUDY    31  26  82 N16       30.39S WCI  20
HASTINGS       CLOUDY    29  25  85 N12       30.39R WCI  19
ORD            CLOUDY    33  26  75 N8        30.40R WCI  26
YORK           CLOUDY    28  27  93 N14       30.38R WCI  17
AURORA         CLOUDY    31  27  83 N18       30.39R WCI  20
LEXINGTON      CLOUDY    33  26  75 N13       30.40S WCI  24
HOLDREGE       CLOUDY    32  26  78 N16       30.38F WCI  21
HEBRON         CLEAR     30  26  85 N6G17     30.37F WCI  24

...NEBRASKA PANHANDLE...

CITY           SKY/WX    TMP DP  RH WIND       PRES   REMARKS
CHADRON        CLEAR     16   8  71 SW7       30.42S WCI   6
ALLIANCE       CLEAR     11   7  84 W8        30.39S WCI  -1
SCOTTSBLUFF    CLEAR     16   7  67 NW5       30.42S WCI   9
SIDNEY         CLEAR     10   6  84 W9        30.39S WCI  -3

...WESTERN AND NORTH CENTRAL NEBRASKA...

CITY           SKY/WX    TMP DP  RH WIND       PRES   REMARKS
VALENTINE      CLEAR     22  18  85 W6        30.41S WCI  14
AINSWORTH      CLEAR     24  23  96 CALM      30.40S
ONEILL         PTCLDY    29  27  90 NW6       30.40F WCI  23
BROKEN BOW     CLOUDY    33  27  78 N14G22    30.40R WCI  23
IMPERIAL       CLOUDY    29  24  82 N8        30.41F WCI  21
NORTH PLATTE   CLOUDY    32  24  72 N9        30.41S WCI  24
MCCOOK         CLOUDY    32  24  72 N6        30.40F WCI  26

...EASTERN NEBRASKA...

CITY           SKY/WX    TMP DP  RH WIND       PRES   REMARKS
NORFOLK        CLOUDY    31  24  75 N13       30.39F WCI  21
SO SIOUX CITY  CLEAR     26  23  88 NW8       30.41R WCI  18
TEKAMAH        PTCLDY    26  22  84 N10       30.40S WCI  16
COLUMBUS       MOCLDY    28  25  88 NW8       30.41S WCI  20
ALBION         CLOUDY    32  26  78 N9        30.40S WCI  24
OMAHA EPPLEY   PTCLDY    28  24  85 N15       30.38S WCI  16
OFFUTT AFB     PTCLDY    31  23  72 N9        30.37R WCI  23
MILLARD        PTCLDY    31  25  77 NW8G16    30.39R WCI  24
LINCOLN        MOCLDY    28  22  78 N6        30.40R WCI  22
NEBRASKA CITY  CLEAR     31  23  72 N8        30.35R WCI  24
BEATRICE       PTCLDY    30  25  81 N10       30.35S WCI  21
FALLS CITY     PTCLDY    29  22  75 NW8       30.32F WCI  21

...NORTHERN KANSAS...

CITY           SKY/WX    TMP DP  RH WIND       PRES   REMARKS
GOODLAND       CLOUDY    27  24  89 N15       30.38S WCI  15
HILL CITY      CLEAR     28  22  78 N14       30.38F WCI  17
NORTON         FAIR      27  23  86 N8        30.42S WCI  18
PHILLIPSBURG   CLEAR     28  21  74 NW7       30.38F WCI  21
OBERLIN        CLOUDY    31  25  77 N8        30.44S WCI  24
SMITH CENTER   CLEAR     30  27  86 N16G24    30.36F WCI  19
BELOIT         CLEAR     28  25  86 N17       30.35R WCI  16
HAYS           PTCLDY    29  24  82 N20       30.34S WCI  16
RUSSELL        CLOUDY    30  23  75 N14       30.33R WCI  19
CONCORDIA      CLEAR     30  24  78 N12       30.34R WCI  20
SALINA         CLOUDY    37  23  56 N16       30.31R WCI  28
TOPEKA         MOCLDY    35  23  61 N5        30.29S WCI  31


USA.gov is the U.S. government's official web portal to all federal, state and local government web resources and services.